Zurück zum Katalog

STARLINK-4593

AktivKommunikationVLEO
NORAD 53633·PAYLOAD·🇺🇸 United States

Gestartet Aug 28, 2022 von Cape Canaveral Space Force Station

Loading…

Nächste Überflüge (nächste 24 Stunden)

TLE

AktuellSource: CelesTrak SupGP

Epoche: Sep 14, 2026, 21:31 UTC

1 53633C 22104AX  26257.89701389  .00013166  00000+0  38917-3 0  2570
2 53633  53.1591  87.7245 0001279  81.6864 156.5269 15.34370917    16

Verfolge STARLINK-4593 in Echtzeit mit AllMySat

Download on the App Store